R1ZAA-14 Weather Reports


Display with metric or nautical units.
time (UTC)temp
F
wind
direction
speed
MPH
gust
MPH
rain 1hr
in
rain 24hr
in
rain mn
in
humidity
%
barometer
mb
20260507024713 34 0.0 0.0 0.00 0.00 0.00 997.0
20260507023710 34 0.0 0.0 0.00 0.00 0.00 996.9
20260507022708 33 0.0 0.0 0.00 0.00 0.00 997.0
20260507021706 32 0.0 0.0 0.00 0.00 0.00 997.0
20260507020704 33 0.0 0.0 0.00 0.00 0.00 996.8
20260507015701 33 0.0 0.0 0.00 0.00 0.00 996.8
20260507014659 33 0.0 0.0 0.00 0.00 0.00 996.8
20260507013657 33 0.0 0.0 0.00 0.00 0.00 996.7
20260507012655 32 0.0 0.0 0.00 0.00 0.00 996.7
20260507011652 32 0.0 0.0 0.00 0.00 0.00 996.7
20260507010650 33 0.0 0.0 0.00 0.00 0.00 996.7
20260507005648 33 0.0 0.0 0.00 0.00 0.00 996.6
20260507004646 33 0.0 0.0 0.00 0.00 0.00 996.6
20260507003643 32 0.0 0.0 0.00 0.00 0.00 996.7
20260507002640 32 0.0 0.0 0.00 0.00 0.00 996.5
20260507001638 33 0.0 0.0 0.00 0.00 0.00 996.4
20260507000636 33 0.0 0.0 0.00 0.00 0.00 996.4
20260506235634 33 0.0 0.0 0.00 0.00 0.00 996.3
20260506234632 34 0.0 0.0 0.00 0.00 0.00 996.2
20260506233630 34 0.0 0.0 0.00 0.00 0.00 996.1
20260506232627 34 0.0 0.0 0.00 0.00 0.00 996.1
20260506231625 34 0.0 0.0 0.00 0.00 0.00 996.1
20260506230623 34 0.0 0.0 0.00 0.00 0.00 996.0
20260506225621 35 0.0 0.0 0.00 0.00 0.00 996.0
20260506224619 35 0.0 0.0 0.00 0.00 0.00 995.9
20260506223616 34 0.0 0.0 0.00 0.00 0.00 995.9
20260506222614 34 0.0 0.0 0.00 0.00 0.00 995.8
20260506221612 35 0.0 0.0 0.00 0.00 0.00 995.7
20260506215602 36 0.0 0.0 0.00 0.00 0.00 995.7
20260506214600 35 0.0 0.0 0.00 0.00 0.00 995.6
20260506213557 35 0.0 0.0 0.00 0.00 0.00 995.6
20260506212555 35 0.0 0.0 0.00 0.00 0.00 995.5
20260506211553 35 0.0 0.0 0.00 0.00 0.00 995.4
20260506210551 35 0.0 0.0 0.00 0.00 0.00 995.3
20260506205549 36 0.0 0.0 0.00 0.00 0.00 995.2
20260506204546 36 0.0 0.0 0.00 0.00 0.00 995.2
20260506203544 36 0.0 0.0 0.00 0.00 0.00 995.1
20260506202542 37 0.0 0.0 0.00 0.00 0.00 995.0
20260506201539 36 0.0 0.0 0.00 0.00 0.00 995.0
20260506200537 36 0.0 0.0 0.00 0.00 0.00 994.9
20260506195535 36 0.0 0.0 0.00 0.00 0.00 994.9
20260506194533 36 0.0 0.0 0.00 0.00 0.00 994.8
20260506193530 37 0.0 0.0 0.00 0.00 0.00 994.7
20260506192528 37 0.0 0.0 0.00 0.00 0.00 994.6
20260506191526 39 0.0 0.0 0.00 0.00 0.00 994.6
20260506190524 39 0.0 0.0 0.00 0.00 0.00 994.5
20260506185522 40 0.0 0.0 0.00 0.00 0.00 994.4
20260506184519 41 0.0 0.0 0.00 0.00 0.00 994.3
20260506183517 41 0.0 0.0 0.00 0.00 0.00 994.2
20260506182515 40 0.0 0.0 0.00 0.00 0.00 994.3
20260506181513 41 0.0 0.0 0.00 0.00 0.00 994.1
20260506180510 42 0.0 0.0 0.00 0.00 0.00 994.1
20260506175508 48 0.0 0.0 0.00 0.00 0.00 994.0
20260506174506 45 0.0 0.0 0.00 0.00 0.00 993.9
20260506173504 46 0.0 0.0 0.00 0.00 0.00 993.9
20260506172501 48 0.0 0.0 0.00 0.00 0.00 993.9
20260506171459 48 0.0 0.0 0.00 0.00 0.00 993.8
20260506170457 51 0.0 0.0 0.00 0.00 0.00 993.7
20260506165455 51 0.0 0.0 0.00 0.00 0.00 993.7
20260506164452 53 0.0 0.0 0.00 0.00 0.00 993.6
20260506163450 52 0.0 0.0 0.00 0.00 0.00 993.6
20260506162448 49 0.0 0.0 0.00 0.00 0.00 993.6
20260506161446 55 0.0 0.0 0.00 0.00 0.00 993.3
20260506160444 57 0.0 0.0 0.00 0.00 0.00 993.3
20260506155441 49 0.0 0.0 0.00 0.00 0.00 993.2
20260506154439 52 0.0 0.0 0.00 0.00 0.00 993.1
20260506153437 53 0.0 0.0 0.00 0.00 0.00 993.1
20260506152435 52 0.0 0.0 0.00 0.00 0.00 993.0
20260506151432 49 0.0 0.0 0.00 0.00 0.00 992.8
20260506150430 54 0.0 0.0 0.00 0.00 0.00 992.8
20260506145428 52 0.0 0.0 0.00 0.00 0.00 992.8
20260506144426 45 0.0 0.0 0.00 0.00 0.00 992.7
20260506143423 52 0.0 0.0 0.00 0.00 0.00 992.6
20260506142421 54 0.0 0.0 0.00 0.00 0.00 992.5
20260506141419 50 0.0 0.0 0.00 0.00 0.00 992.5
20260506140417 54 0.0 0.0 0.00 0.00 0.00 992.4
20260506135415 56 0.0 0.0 0.00 0.00 0.00 992.2
20260506134413 50 0.0 0.0 0.00 0.00 0.00 992.3
20260506133411 51 0.0 0.0 0.00 0.00 0.00 992.3
20260506132409 42 0.0 0.0 0.00 0.00 0.00 992.2
20260506131406 42 0.0 0.0 0.00 0.00 0.00 992.2
20260506130404 42 0.0 0.0 0.00 0.00 0.00 992.1
20260506125402 42 0.0 0.0 0.00 0.00 0.00 992.1
20260506124400 40 0.0 0.0 0.00 0.00 0.00 992.1
20260506123357 37 0.0 0.0 0.00 0.00 0.00 991.9
20260506122355 37 0.0 0.0 0.00 0.00 0.00 991.7
20260506121353 41 0.0 0.0 0.00 0.00 0.00 991.7
20260506120351 41 0.0 0.0 0.00 0.00 0.00 991.6
20260506115348 37 0.0 0.0 0.00 0.00 0.00 991.5
20260506114347 39 0.0 0.0 0.00 0.00 0.00 991.3
20260506113344 42 0.0 0.0 0.00 0.00 0.00 991.1
20260506112342 42 0.0 0.0 0.00 0.00 0.00 991.1
20260506111339 42 0.0 0.0 0.00 0.00 0.00 991.0
20260506110337 40 0.0 0.0 0.00 0.00 0.00 991.0
20260506105335 41 0.0 0.0 0.00 0.00 0.00 990.9
20260506104333 40 0.0 0.0 0.00 0.00 0.00 990.8
20260506103330 39 0.0 0.0 0.00 0.00 0.00 990.8
20260506102328 38 0.0 0.0 0.00 0.00 0.00 990.7
20260506101326 38 0.0 0.0 0.00 0.00 0.00 990.5
20260506100324 38 0.0 0.0 0.00 0.00 0.00 990.2
20260506095321 40 0.0 0.0 0.00 0.00 0.00 990.2
20260506094319 37 0.0 0.0 0.00 0.00 0.00 990.1
20260506093317 37 0.0 0.0 0.00 0.00 0.00 990.0
20260506092315 37 0.0 0.0 0.00 0.00 0.00 989.9
20260506091312 37 0.0 0.0 0.00 0.00 0.00 989.8
20260506090310 40 0.0 0.0 0.00 0.00 0.00 989.6
20260506085308 39 0.0 0.0 0.00 0.00 0.00 989.5
20260506084306 37 0.0 0.0 0.00 0.00 0.00 989.4
20260506083303 37 0.0 0.0 0.00 0.00 0.00 989.2
20260506082304 38 0.0 0.0 0.00 0.00 0.00 989.1
20260506081259 39 0.0 0.0 0.00 0.00 0.00 988.9
20260506080256 38 0.0 0.0 0.00 0.00 0.00 988.9
20260506073250 35 0.0 0.0 0.00 0.00 0.00 988.6
20260506072248 35 0.0 0.0 0.00 0.00 0.00 988.6
20260506071245 35 0.0 0.0 0.00 0.00 0.00 988.5
20260506070243 36 0.0 0.0 0.00 0.00 0.00 988.4
20260506062234 36 0.0 0.0 0.00 0.00 0.00 988.1
20260506061231 36 0.0 0.0 0.00 0.00 0.00 988.0
20260506060229 35 0.0 0.0 0.00 0.00 0.00 987.9
20260506051218 34 0.0 0.0 0.00 0.00 0.00 987.5
20260506050216 34 0.0 0.0 0.00 0.00 0.00 987.4
20260506044211 34 0.0 0.0 0.00 0.00 0.00 987.3
20260506043209 34 0.0 0.0 0.00 0.00 0.00 987.2
20260506042207 34 0.0 0.0 0.00 0.00 0.00 987.2
20260506041205 34 0.0 0.0 0.00 0.00 0.00 987.1
20260506040203 34 0.0 0.0 0.00 0.00 0.00 987.0
20260506035200 34 0.0 0.0 0.00 0.00 0.00 986.9
20260506034158 34 0.0 0.0 0.00 0.00 0.00 986.8
20260506033156 34 0.0 0.0 0.00 0.00 0.00 986.7
20260506032154 33 0.0 0.0 0.00 0.00 0.00 986.8
20260506031152 33 0.0 0.0 0.00 0.00 0.00 986.6
20260506030149 33 0.0 0.0 0.00 0.00 0.00 986.5